Regional Weather Roundup
Issued by NWS

Home | Current Version | Previous Version | Text Only | Print | Product List | Glossary Off
Versions: 1 2 3 4 5 6 7 8 9 10 11 12 13 14 15 16 17 18 19 20 21 22 23 24 25 26 27 28 29 30 31 32 33 34 35 36 37 38 39 40 41 42 43 44 45 46 47 48 49 50

340
ASUS43 KDTX 211201
RWRMI
MICHIGAN HOURLY REGIONAL WEATHER ROUNDUP
NATIONAL WEATHER SERVICE DETROIT/PONTIAC MI
800 AM EDT MON AUG 21 2017

NOTE: "FAIR" INDICATES FEW OR NO CLOUDS BELOW 12,000 FEET WITH NO
SIGNIFICANT WEATHER AND/OR OBSTRUCTION TO VISIBILITY.

MIZ047>049-052>055-059>063-066>070-074>076-081>083-211300-
SOUTHEAST LOWER MICHIGAN

CITY           SKY/WX    TMP DP  RH WIND       PRES   REMARKS
ADRIAN         CLOUDY    67  63  87 SW3       30.15R FOG
6HR MIN TEMP:  65; 6HR MAX TEMP:  68;

ALMA           PTSUNNY   65  63  93 CALM      30.11R FOG
ANN ARBOR      CLOUDY    67  67 100 MISG      30.12R
BAD AXE        SUNNY     67  64  90 CALM      30.10S
CARO           SUNNY     68  64  88 CALM      30.10S
DETROIT CITY   MOSUNNY   70  67  90 CALM      30.12R
6HR MIN TEMP:  67; 6HR MAX TEMP:  73;

DETROIT        CLOUDY    73  70  90 E3        30.12R FOG
6HR MIN TEMP:  69; 6HR MAX TEMP:  74;

FLINT          MOSUNNY   70  66  87 SW3       30.11R
6HR MIN TEMP:  65; 6HR MAX TEMP:  70;

GROSSE ILE     FOG       70  69  98 CALM      30.11R VSB 3/4
6HR MIN TEMP:  67; 6HR MAX TEMP:  72;

HILLSDALE      CLOUDY    70  64  83 CALM      30.13S
HOWELL         CLOUDY    70  66  85 SW5       30.12S
6HR MIN TEMP:  66; 6HR MAX TEMP:  70;


CITY           SKY/WX    TMP DP  RH WIND       PRES   REMARKS
JACKSON        PTSUNNY   68  64  87 CALM      30.12R
6HR MIN TEMP:  64; 6HR MAX TEMP:  71;

LAMBERTVILLE   MOSUNNY   69  68  97 S3        30.13R FOG
6HR MIN TEMP:  65; 6HR MAX TEMP:  69;

LANSING        CLOUDY    71  64  78 S5        30.11R
6HR MIN TEMP:  68; 6HR MAX TEMP:  71;

LAPEER         FAIR      64  63  98 CALM      30.11S
MASON          CLOUDY    69  65  85 SE7       30.12R
MONROE         CLOUDY    69  68  98 CALM      30.11S FOG
6HR MIN TEMP:  63; 6HR MAX TEMP:  70;

MT. CLEMENS    PTSUNNY   67  67  99 CALM      30.10R
6HR MIN TEMP:  63; 6HR MAX TEMP:  71;

PONTIAC        MOSUNNY   69  67  93 CALM      30.11S
6HR MIN TEMP:  65; 6HR MAX TEMP:  71;

PORT HOPE        N/A     69  63  81 SW8       30.07R
6HR MIN TEMP:  67; 6HR MAX TEMP:  69;

PORT HURON     CLOUDY    68  66  94 CALM      30.11S
TRI CITIES     CLOUDY    69  66  90 SW6       30.10R
6HR MIN TEMP:  65; 6HR MAX TEMP:  71;

MIDLAND        FAIR      65  65  99 CALM      30.09R
6HR MIN TEMP:  61; 6HR MAX TEMP:  65;

TROY           MOSUNNY   71  67  89 CALM      30.13S
SAGINAW HB     MOSUNNY   70  64  83 S6        30.09R
$$
MIZ043>046-050>051-056>058-064>065-071>073-077>080-211300-
SOUTHWEST LOWER MICHIGAN

CITY           SKY/WX    TMP DP  RH WIND       PRES   REMARKS
BATTLE CREEK   MOSUNNY   71  66  84 S5        30.12R
6HR MIN TEMP:  69; 6HR MAX TEMP:  72;

BENTON HARBOR  PTSUNNY   72  65  78 S3        30.06F
6HR MIN TEMP:  71; 6HR MAX TEMP:  76;

BIG RAPIDS     CLOUDY    61  58  92 SW3       30.10R
6HR MIN TEMP:  58; 6HR MAX TEMP:  62;

COLDWATER      CLOUDY    71  67  88 SE3       30.12S
6HR MIN TEMP:  67; 6HR MAX TEMP:  71;

FREMONT        FAIR      65  65 100 CALM      30.08S FOG
HOLLAND        CLOUDY    70  65  84 CALM      30.08S
6HR MIN TEMP:  66; 6HR MAX TEMP:  71;

GRAND RAPIDS   CLOUDY    69  66  90 S6        30.09R
6HR MIN TEMP:  67; 6HR MAX TEMP:  70;

IONIA          PTSUNNY   66  64  94 CALM      30.10R
6HR MIN TEMP:  64; 6HR MAX TEMP:  70;

KALAMAZOO      MOSUNNY   72  64  76 SE3       30.10R
6HR MIN TEMP:  70; 6HR MAX TEMP:  73;

LUDINGTON      CLOUDY    63  62  96 CALM      30.07S
6HR MIN TEMP:  60; 6HR MAX TEMP:  73;

MARSHALL       MOSUNNY   69  66  90 CALM      30.11S
6HR MIN TEMP:  65; 6HR MAX TEMP:  69;

MOUNT PLEASANT MOSUNNY   66  65  95 CALM      30.09R
6HR MIN TEMP:  64; 6HR MAX TEMP:  69;

MUSKEGON       CLOUDY    70  66  87 CALM      30.08R
6HR MIN TEMP:  67; 6HR MAX TEMP:  70;

SOUTH HAVEN    CLOUDY    69  67  92 CALM      30.07F
$$
MIZ016>042-211300-
NORTHERN LOWER MICHIGAN

CITY           SKY/WX    TMP DP  RH WIND       PRES   REMARKS
ALPENA         SUNNY     69  64  84 SW6       30.06R
6HR MIN TEMP:  67; 6HR MAX TEMP:  70;

BEAVER ISLAND  PTSUNNY   68  68 100 CALM      30.05R FOG
6HR MIN TEMP:  64; 6HR MAX TEMP:  70;

BELLAIRE       CLOUDY    66  63  90 CALM      30.06R
6HR MIN TEMP:  62; 6HR MAX TEMP:  68;

CADILLAC       MOSUNNY   67  62  84 CALM      30.10R
CHARLEVOIX     CLOUDY    70  69  96 S5        30.08R
6HR MIN TEMP:  68; 6HR MAX TEMP:  72;

FRANKFORT      MOSUNNY   69  69  99 CALM      30.06S
GAYLORD        CLOUDY    66  61  84 SW3       30.09R
6HR MIN TEMP:  64; 6HR MAX TEMP:  66;

GRAYLING       CLOUDY    65  61  86 CALM      30.10R
6HR MIN TEMP:  58; 6HR MAX TEMP:  65;

HARBOR SPRINGS CLOUDY    69  67  95 CALM      30.06R
HOUGHTON LAKE  SUNNY     68  62  81 SW5       30.10R
6HR MIN TEMP:  61; 6HR MAX TEMP:  69;

MANISTEE       CLOUDY    64  62  93 CALM      30.06S
OSCODA         SUNNY     67  62  85 SW6       30.07R
6HR MIN TEMP:  64; 6HR MAX TEMP:  69;

PELLSTON       CLOUDY    68  67  96 CALM      30.05R FOG
6HR MIN TEMP:  66; 6HR MAX TEMP:  73;

ROGERS CITY    CLOUDY    69  64  85 SW7       30.06R
TRAVERSE CITY  CLOUDY    69  63  81 SW6       30.04S
6HR MIN TEMP:  68; 6HR MAX TEMP:  72;

$$
MIZ007>008-015-211300-
EASTERN UPPER MICHIGAN

CITY           SKY/WX    TMP DP  RH WIND       PRES   REMARKS
KINROSS        FOG       64  64 100 W3        30.04R VSB 1/4
6HR MIN TEMP:  64; 6HR MAX TEMP:  68;

MACKINAC ISLAN MOSUNNY   68  68 100 SW6       30.04R FOG
6HR MIN TEMP:  67; 6HR MAX TEMP:  71;

NEWBERRY       CLOUDY    64  63  97 SW3       30.04R
6HR MIN TEMP:  60; 6HR MAX TEMP:  65;

S. S. MARIE    SUNNY     65  64  97 W5        30.03R FOG
6HR MIN TEMP:  62; 6HR MAX TEMP:  70;

MUNISING         N/A     63  62  97 S5        30.04R
6HR MIN TEMP:  62; 6HR MAX TEMP:  67;

$$
MIZ004>006-011>014-085-211300-
CENTRAL UPPER MICHIGAN

CITY           SKY/WX    TMP DP  RH WIND       PRES   REMARKS
MANISTIQUE     PTSUNNY   66  60  81 CALM      30.04R
6HR MIN TEMP:  60; 6HR MAX TEMP:  67;

ESCANABA       CLOUDY    69  63  81 NW5       30.04S
6HR MIN TEMP:  66; 6HR MAX TEMP:  70;

MENOMINEE      CLOUDY    67  66  97 NW3       30.04F FOG
6HR MIN TEMP:  65; 6HR MAX TEMP:  71;

SAWYER-GWINN   CLEAR     57  55  94 CALM      30.07R
$$
MIZ001>003-009>011-084-211300-
WESTERN UPPER MICHIGAN

CITY           SKY/WX    TMP DP  RH WIND       PRES   REMARKS
IRON MOUNTAIN  PTCLDY    65  60  84 NW6       30.06S
6HR MIN TEMP:  64; 6HR MAX TEMP:  70;

HOUGHTON       CLEAR     60  55  83 NW9       30.05R
6HR MIN TEMP:  56; 6HR MAX TEMP:  63;

COPPER HARBOR    N/A     62  52  69 W3        30.03R
6HR MIN TEMP:  61; 6HR MAX TEMP:  69;

IRONWOOD       CLOUDY    52  51  97 CALM      30.09S
6HR MIN TEMP:  48; 6HR MAX TEMP:  59;

$$

ABBREVIATIONS USED IN REMARKS
   TC - TEMPERATURE IN CELSIUS
  WCI - WIND CHILL INDEX
   HX - HEAT INDEX
  VSB - VISIBILITY





USA.gov is the U.S. government's official web portal to all federal, state and local government web resources and services.